EW5893 Weather Reports


time (UTC)temp
C
wind
direction
speed
KPH
gust
KPH
rain 1hr
cm
rain 24hr
cm
rain mn
cm
humidity
%
barometer
mb
20260510150025 27 282 4.8 14.5 0.00 0.36 0.00 84 1015.1
20260510145505 27 286 4.8 14.5 0.00 0.36 0.00 85 1015.1
20260510145004 27 276 4.8 12.9 0.00 0.36 0.00 86 1015.2
20260510144525 27 273 3.2 12.9 0.00 0.36 0.00 87 1015.1
20260510144054 26 269 4.8 12.9 0.00 0.36 0.00 87 1015.1
20260510143525 27 266 4.8 12.9 0.00 0.36 0.00 86 1015.1
20260510143004 27 265 4.8 16.1 0.00 0.36 0.00 87 1015.1
20260510142505 27 264 4.8 16.1 0.00 0.36 0.00 87 1015.1
20260510142004 27 263 4.8 11.3 0.00 0.36 0.00 89 1015.1
20260510141504 26 268 3.2 11.3 0.00 0.36 0.00 89 1015.1
20260510141007 26 266 3.2 8.0 0.00 0.36 0.00 91 1015.0
20260510140505 26 260 1.6 8.0 0.00 0.36 0.00 91 1014.9
20260510140005 25 262 1.6 4.8 0.00 0.36 0.00 92 1014.9
20260510135506 25 272 1.6 4.8 0.00 0.36 0.00 93 1014.9
20260510135008 25 25 0.0 3.2 0.00 0.36 0.00 95 1014.8
20260510134505 24 353 0.0 4.8 0.00 0.36 0.00 94 1014.8
20260510134005 24 308 1.6 6.4 0.00 0.36 0.00 94 1014.8
20260510133525 23 305 1.6 6.4 0.00 0.36 0.00 94 1014.9
20260510133005 23 303 1.6 4.8 0.00 0.36 0.00 95 1015.0
20260510132505 23 323 1.6 4.8 0.00 0.36 0.00 96 1014.8
20260510132004 23 5 0.0 4.8 0.00 0.36 0.00 97 1014.8
20260510131525 23 0 0.0 0.0 0.00 0.36 0.00 97 1014.8
20260510131025 23 0 0.0 0.0 0.00 0.36 0.00 97 1014.8
20260510130504 22 0 0.0 0.0 0.00 0.36 0.00 96 1014.7
20260510130005 22 0 0.0 0.0 0.00 0.36 0.00 97 1014.7
20260510125504 22 0 0.0 0.0 0.00 0.36 0.00 97 1014.5
20260510125005 22 126 0.0 3.2 0.00 0.36 0.00 97 1014.5
20260510124504 22 126 0.0 3.2 0.00 0.36 0.00 97 1014.5
20260510124026 22 126 0.0 3.2 0.00 0.36 0.00 97 1014.5
20260510123504 22 126 0.0 3.2 0.00 0.36 0.00 97 1014.4
20260510123004 22 126 0.0 1.6 0.00 0.36 0.00 97 1014.4
20260510122505 22 126 0.0 1.6 0.00 0.36 0.00 97 1014.3
20260510122026 21 126 0.0 1.6 0.00 0.36 0.00 97 1014.3
20260510121504 21 126 0.0 1.6 0.00 0.36 0.00 96 1014.2
20260510121005 21 126 0.0 1.6 0.00 0.36 0.00 96 1014.2
20260510120504 21 0 0.0 0.0 0.00 0.36 0.00 96 1014.1
20260510120005 21 126 0.0 1.6 0.00 0.36 0.00 96 1014.0
20260510115504 21 126 0.0 1.6 0.00 0.36 0.00 96 1014.0
20260510115004 20 0 0.0 0.0 0.00 0.36 0.00 96 1014.0
20260510114504 20 0 0.0 0.0 0.00 0.36 0.00 96 1013.8
20260510114004 20 0 0.0 0.0 0.00 0.36 0.00 96 1013.7
20260510113504 20 0 0.0 0.0 0.00 0.36 0.00 96 1013.5
20260510113004 20 0 0.0 0.0 0.00 0.36 0.00 96 1013.4
20260510112504 20 0 0.0 0.0 0.00 0.36 0.00 96 1013.4
20260510112004 20 0 0.0 0.0 0.00 0.36 0.00 96 1013.4
20260510111504 20 0 0.0 0.0 0.00 0.36 0.00 96 1013.3
20260510111004 20 0 0.0 0.0 0.00 0.36 0.00 96 1013.2
20260510110505 20 0 0.0 0.0 0.00 0.36 0.00 96 1013.2
20260510110005 20 0 0.0 0.0 0.00 0.36 0.00 96 1013.0
20260510105504 20 0 0.0 0.0 0.00 0.36 0.00 96 1012.9
20260510105004 20 0 0.0 0.0 0.00 0.36 0.00 96 1012.8
20260510104505 20 0 0.0 0.0 0.00 0.36 0.00 96 1012.7
20260510104025 20 0 0.0 0.0 0.00 0.36 0.00 96 1012.7
20260510103526 20 0 0.0 0.0 0.00 0.36 0.00 96 1012.7
20260510103025 20 0 0.0 0.0 0.00 0.36 0.00 96 1012.7
20260510102504 19 0 0.0 0.0 0.00 0.36 0.00 96 1012.6
20260510102004 19 0 0.0 0.0 0.00 0.36 0.00 96 1012.5
20260510101504 19 0 0.0 0.0 0.00 0.36 0.00 96 1012.5
20260510101004 19 0 0.0 0.0 0.00 0.36 0.00 96 1012.4
20260510100504 19 0 0.0 0.0 0.00 0.36 0.00 96 1012.4
20260510100004 19 0 0.0 0.0 0.00 0.36 0.00 96 1012.3
20260510095505 19 0 0.0 0.0 0.00 0.36 0.00 96 1012.3
20260510095004 19 0 0.0 0.0 0.00 0.36 0.00 96 1012.3
20260510094506 20 0 0.0 0.0 0.00 0.36 0.00 96 1012.3
20260510094004 20 0 0.0 0.0 0.00 0.36 0.00 96 1012.4
20260510093504 20 0 0.0 0.0 0.00 0.36 0.00 96 1012.3
20260510093004 20 0 0.0 0.0 0.00 0.36 0.00 96 1012.2
20260510092504 20 0 0.0 0.0 0.00 0.36 0.00 96 1012.1
20260510092004 20 0 0.0 0.0 0.00 0.36 0.00 96 1012.2
20260510091504 20 0 0.0 0.0 0.00 0.36 0.00 96 1012.1
20260510091004 20 0 0.0 0.0 0.00 0.36 0.00 96 1012.0
20260510090504 20 0 0.0 0.0 0.00 0.36 0.00 96 1012.0
20260510090004 20 0 0.0 0.0 0.00 0.36 0.00 96 1012.0
20260510085504 20 0 0.0 0.0 0.00 0.36 0.00 96 1011.9
20260510085004 20 0 0.0 0.0 0.00 0.36 0.00 96 1011.8
20260510084505 20 0 0.0 0.0 0.00 0.36 0.00 96 1011.8
20260510084004 20 0 0.0 0.0 0.00 0.36 0.00 96 1011.8
20260510083525 20 0 0.0 0.0 0.00 0.36 0.00 95 1011.8
20260510083005 20 0 0.0 0.0 0.00 0.36 0.00 95 1011.6
20260510082504 20 0 0.0 0.0 0.00 0.36 0.00 95 1011.6
20260510082026 20 0 0.0 0.0 0.00 0.36 0.00 95 1011.6
20260510081504 20 0 0.0 0.0 0.00 0.36 0.00 95 1011.5
20260510081005 20 0 0.0 0.0 0.00 0.36 0.00 95 1011.6
20260510080504 20 0 0.0 0.0 0.00 0.36 0.00 96 1011.6
20260510080004 20 0 0.0 0.0 0.00 0.36 0.00 96 1011.5
20260510075504 20 0 0.0 0.0 0.00 0.36 0.00 96 1011.5
20260510075025 20 0 0.0 0.0 0.00 0.36 0.00 96 1011.4
20260510074526 20 0 0.0 0.0 0.00 0.36 0.00 96 1011.4
20260510074004 20 0 0.0 0.0 0.00 0.36 0.00 96 1011.3
20260510073504 20 0 0.0 0.0 0.00 0.36 0.00 95 1011.3
20260510073004 20 0 0.0 0.0 0.00 0.36 0.00 95 1011.3
20260510072504 20 0 0.0 0.0 0.00 0.36 0.00 96 1011.4
20260510072004 20 0 0.0 0.0 0.00 0.36 0.00 96 1011.5
20260510071504 20 0 0.0 0.0 0.00 0.36 0.00 96 1011.5
20260510071025 20 0 0.0 0.0 0.00 0.36 0.00 96 1011.5
20260510070505 20 0 0.0 0.0 0.00 0.36 0.00 95 1011.4
20260510070004 20 0 0.0 0.0 0.00 0.36 0.00 95 1011.5
20260510065506 20 0 0.0 0.0 0.00 0.36 0.00 95 1011.6
20260510065025 20 0 0.0 0.0 0.00 0.36 0.00 95 1011.6
20260510064526 20 0 0.0 0.0 0.00 0.36 0.00 95 1011.6
20260510064004 20 0 0.0 0.0 0.00 0.36 0.00 95 1011.7
20260510063504 20 0 0.0 0.0 0.00 0.36 0.00 95 1011.7
20260510063005 20 126 0.0 1.6 0.00 0.36 0.00 95 1011.7
20260510062504 20 126 0.0 1.6 0.00 0.36 0.00 95 1011.7
20260510062004 20 0 0.0 0.0 0.00 0.36 0.00 95 1011.8
20260510061505 20 0 0.0 0.0 0.00 0.36 0.00 95 1011.8
20260510061004 20 0 0.0 0.0 0.00 0.36 0.00 95 1011.8
20260510060504 20 0 0.0 0.0 0.00 0.36 0.00 95 1011.9
20260510060004 20 0 0.0 0.0 0.00 0.36 0.00 95 1011.9
20260510055504 20 126 0.0 1.6 0.00 0.36 0.00 95 1012.1
20260510055004 20 126 0.0 3.2 0.00 0.36 0.00 95 1012.1
20260510054504 20 126 0.0 3.2 0.00 0.36 0.00 95 1012.2
20260510054004 20 126 0.0 3.2 0.00 0.36 0.00 95 1012.2
20260510053525 20 126 0.0 3.2 0.00 0.36 0.00 95 1012.2
20260510053004 20 126 0.0 1.6 0.00 0.36 0.00 95 1012.2
20260510052504 20 126 0.0 1.6 0.00 0.36 0.00 95 1012.3
20260510052004 20 126 0.0 1.6 0.00 0.36 0.00 95 1012.4
20260510051525 20 126 0.0 1.6 0.00 0.36 0.00 95 1012.3
20260510051004 20 124 0.0 4.8 0.00 0.36 0.00 95 1012.5
20260510050504 20 123 0.0 4.8 0.00 0.36 0.00 95 1012.5
20260510050004 20 120 0.0 1.6 0.00 0.36 0.00 95 1012.6
20260510045503 20 120 0.0 3.2 0.00 0.36 0.00 95 1012.6
20260510045004 20 120 0.0 3.2 0.00 0.36 0.00 95 1012.7
20260510044503 20 120 1.6 3.2 0.00 0.36 0.00 95 1012.6
20260510044006 20 119 1.6 4.8 0.00 0.36 0.00 95 1012.6
20260510043503 20 119 1.6 4.8 0.00 0.36 0.00 95 1012.6
20260510043025 20 127 1.6 4.8 0.00 0.36 0.00 95 1012.6
20260510042504 20 132 1.6 6.4 0.00 0.36 0.00 95 1012.6
20260510042004 20 133 1.6 6.4 0.00 0.36 0.00 95 1012.7
20260510041504 20 134 1.6 4.8 0.00 0.36 0.00 95 1012.8
20260510041004 20 134 1.6 4.8 0.00 0.36 0.00 95 1013.0
20260510040504 20 134 1.6 4.8 0.00 0.36 0.00 95 1013.1
20260510040006 20 134 1.6 4.8 0.00 0.36 0.00 95 1013.2
20260510035525 20 134 1.6 4.8 0.00 0.36 0.36 95 1013.2
20260510035004 20 134 1.6 4.8 0.00 0.36 0.36 95 1013.2
20260510034504 20 130 1.6 4.8 0.00 0.36 0.36 95 1013.2
20260510034004 20 128 1.6 4.8 0.00 0.36 0.36 95 1013.2
20260510033504 20 129 1.6 4.8 0.00 0.36 0.36 95 1013.2
20260510033003 20 129 1.6 4.8 0.00 0.36 0.36 95 1013.3
20260510032504 20 127 0.0 4.8 0.00 0.36 0.36 95 1013.4
20260510032003 20 125 0.0 4.8 0.00 0.36 0.36 95 1013.4
20260510031503 20 103 0.0 1.6 0.00 0.36 0.36 95 1013.4
20260510031004 20 0 0.0 0.0 0.00 0.36 0.36 95 1013.3
20260510030503 20 0 0.0 0.0 0.00 0.36 0.36 95 1013.3
20260510030004 20 103 0.0 1.6 0.00 0.36 0.36 95 1013.3
20260510025504 20 103 0.0 1.6 0.00 0.36 0.36 95 1013.2
20260510025003 20 0 0.0 0.0 0.00 0.36 0.36 95 1013.2
20260510024504 20 0 0.0 0.0 0.00 0.36 0.36 95 1013.1
20260510024004 20 0 0.0 0.0 0.00 0.36 0.36 95 1013.1
20260510023506 20 0 0.0 0.0 0.00 0.36 0.36 95 1012.9
20260510023005 20 0 0.0 0.0 0.00 0.36 0.36 95 1012.9
20260510022506 20 0 0.0 0.0 0.00 0.36 0.36 95 1012.9
20260510022004 20 0 0.0 0.0 0.00 0.36 0.36 95 1012.9
20260510021504 20 0 0.0 0.0 0.00 0.36 0.36 95 1012.9
20260510021004 20 103 0.0 1.6 0.00 0.36 0.36 95 1013.0
20260510020503 20 103 0.0 1.6 0.00 0.36 0.36 95 1012.9
20260510020005 20 103 0.0 1.6 0.00 0.36 0.36 95 1012.9
20260510015504 20 0 0.0 0.0 0.00 0.36 0.36 95 1012.9
20260510015007 20 0 0.0 0.0 0.00 0.36 0.36 95 1012.8
20260510014503 21 0 0.0 0.0 0.00 0.36 0.36 95 1012.6
20260510014005 21 0 0.0 0.0 0.00 0.36 0.36 95 1012.4
20260510013503 21 0 0.0 0.0 0.00 0.36 0.36 95 1012.4
20260510013004 21 0 0.0 0.0 0.00 0.36 0.36 95 1012.5
20260510012505 21 0 0.0 0.0 0.00 0.36 0.36 95 1012.3
20260510012024 21 0 0.0 0.0 0.00 0.36 0.36 95 1012.3
20260510011526 21 103 0.0 1.6 0.00 0.36 0.36 95 1012.2
20260510011003 21 103 0.0 1.6 0.00 0.36 0.36 95 1012.1
20260510010505 21 103 0.0 3.2 0.00 0.36 0.36 94 1012.1
20260510010004 21 103 1.6 3.2 0.00 0.36 0.36 95 1012.3
20260510005503 21 102 0.0 3.2 0.00 0.36 0.36 94 1012.1
20260510005005 21 102 0.0 3.2 0.00 0.36 0.36 94 1012.1
20260510004503 21 102 0.0 3.2 0.00 0.36 0.36 94 1011.8
20260510004005 21 102 0.0 1.6 0.00 0.36 0.36 94 1012.0
20260510003503 21 102 0.0 1.6 0.03 0.36 0.36 94 1011.9
20260510003004 21 102 0.0 1.6 0.03 0.36 0.36 94 1012.1
20260510002504 21 102 0.0 1.6 0.03 0.36 0.36 94 1012.1
20260510002004 20 102 0.0 3.2 0.03 0.36 0.36 94 1011.8
20260510001504 20 102 0.0 3.2 0.03 0.36 0.36 94 1011.6
20260510001003 21 96 1.6 4.8 0.03 0.36 0.36 94 1011.7
20260510000504 21 94 0.0 4.8 0.03 0.36 0.36 94 1011.6
20260510000003 21 92 0.0 3.2 0.03 0.36 0.36 94 1011.8
20260509235505 21 92 1.6 3.2 0.03 0.36 0.36 94 1011.7
20260509235003 21 86 1.6 4.8 0.03 0.36 0.36 94 1011.5
20260509234504 21 39 0.0 4.8 0.03 0.36 0.36 94 1011.8
20260509234003 21 15 1.6 4.8 0.03 0.36 0.36 94 1011.8
20260509233506 21 13 1.6 4.8 0.00 0.33 0.33 94 1011.8
20260509233006 21 4 1.6 4.8 0.00 0.33 0.33 94 1011.8
20260509232504 21 356 1.6 4.8 0.00 0.33 0.33 94 1011.8
20260509232006 21 4 1.6 4.8 0.00 0.33 0.33 94 1011.9
20260509231504 21 24 1.6 4.8 0.00 0.33 0.33 94 1012.0
20260509231003 21 29 1.6 4.8 0.03 0.33 0.33 94 1011.9
20260509230503 21 28 1.6 4.8 0.05 0.33 0.33 93 1011.9
20260509230005 21 32 1.6 4.8 0.08 0.33 0.33 93 1011.9
20260509225503 21 32 1.6 4.8 0.08 0.33 0.33 93 1011.8
20260509225006 21 31 3.2 4.8 0.08 0.33 0.33 93 1011.9
20260509224503 21 31 3.2 6.4 0.08 0.33 0.33 93 1012.0
20260509224005 21 31 3.2 8.0 0.08 0.33 0.33 93 1011.9
20260509223503 21 36 3.2 8.0 0.10 0.33 0.33 93 1012.0
20260509223004 21 49 1.6 6.4 0.13 0.33 0.33 93 1012.0
20260509222503 21 51 1.6 4.8 0.15 0.33 0.33 93 1012.2
20260509222005 21 46 1.6 6.4 0.18 0.33 0.33 93 1012.3
20260509221503 21 30 1.6 6.4 0.28 0.33 0.33 93 1012.4
20260509221004 21 333 3.2 11.3 0.28 0.30 0.30 92 1012.6
20260509220504 21 322 3.2 11.3 0.28 0.28 0.28 92 1012.8
20260509220003 21 331 1.6 8.0 0.25 0.25 0.25 92 1012.6
20260509215503 21 358 3.2 8.0 0.25 0.25 0.25 92 1012.5
20260509215004 21 350 1.6 6.4 0.25 0.25 0.25 91 1012.4
20260509214524 21 318 1.6 6.4 0.25 0.25 0.25 91 1012.4
20260509214003 21 350 1.6 6.4 0.25 0.25 0.25 91 1012.4
20260509213524 21 16 3.2 11.3 0.23 0.23 0.25 91 1012.3
20260509213025 21 335 4.8 11.3 0.20 0.20 0.23 90 1012.2
20260509212503 21 314 4.8 12.9 0.18 0.18 0.18 90 1012.3
20260509212004 22 311 4.8 12.9 0.15 0.15 0.15 89 1012.3
20260509211504 22 308 6.4 14.5 0.05 0.05 0.08 88 1012.2
20260509211024 22 314 8.0 19.3 0.03 0.03 0.03 86 1012.3
20260509210503 22 313 8.0 19.3 0.00 0.00 0.00 85 1012.0
20260509210004 23 314 8.0 14.5 0.00 0.00 0.00 83 1012.1
20260509205504 23 315 9.7 17.7 0.00 0.00 0.00 82 1011.8
20260509205003 23 314 8.0 17.7 0.00 0.00 0.00 81 1011.6
20260509204506 23 326 4.8 14.5 0.00 0.00 0.00 80 1011.6
20260509204003 24 360 4.8 17.7 0.00 0.00 0.00 80 1011.4
20260509203524 24 7 4.8 17.7 0.00 0.00 0.00 79 1011.5
20260509203003 25 16 4.8 16.1 0.00 0.00 0.00 78 1011.5
20260509202503 25 352 4.8 14.5 0.00 0.00 0.00 78 1011.4
20260509202003 26 327 6.4 20.9 0.00 0.00 0.00 76 1011.4
20260509201503 27 301 8.0 20.9 0.00 0.00 0.00 77 1011.4
20260509201003 27 278 6.4 14.5 0.00 0.00 0.00 80 1011.1
20260509200503 27 275 6.4 14.5 0.00 0.00 0.00 80 1011.2
20260509200004 27 280 8.0 14.5 0.00 0.00 0.00 80 1011.3
20260509195503 27 276 6.4 14.5 0.00 0.00 0.00 80 1011.2
20260509195003 27 271 4.8 12.9 0.00 0.00 0.00 80 1011.3
20260509194504 27 271 3.2 12.9 0.00 0.00 0.00 80 1011.3
20260509194003 27 262 3.2 6.4 0.00 0.00 0.00 81 1011.3
20260509193503 27 251 4.8 14.5 0.00 0.00 0.00 81 1011.4
20260509193003 27 248 4.8 14.5 0.00 0.00 0.00 80 1011.4
20260509192504 27 248 4.8 11.3 0.00 0.00 0.00 80 1011.5
20260509192004 27 245 4.8 9.7 0.00 0.00 0.00 80 1011.4
20260509191503 27 248 4.8 11.3 0.00 0.00 0.00 79 1011.4
20260509191003 27 252 4.8 11.3 0.00 0.00 0.00 78 1011.4
20260509190524 27 247 4.8 11.3 0.00 0.00 0.00 78 1011.4
20260509190026 27 245 4.8 14.5 0.00 0.00 0.00 78 1011.5
20260509185505 27 246 6.4 16.1 0.00 0.00 0.00 78 1011.6
20260509185006 27 252 6.4 16.1 0.00 0.00 0.00 77 1011.7
20260509184505 27 264 6.4 16.1 0.00 0.00 0.00 77 1011.7
20260509184005 27 264 8.0 16.1 0.00 0.00 0.00 78 1011.8
20260509183505 27 258 8.0 16.1 0.00 0.00 0.00 76 1011.9
20260509183005 27 258 6.4 14.5 0.00 0.00 0.00 76 1011.8
20260509182505 27 261 8.0 16.1 0.00 0.00 0.00 75 1011.7
20260509182005 27 255 6.4 16.1 0.00 0.00 0.00 76 1011.7
20260509181505 27 243 4.8 16.1 0.00 0.00 0.00 75 1011.8
20260509181005 28 246 6.4 17.7 0.00 0.00 0.00 74 1011.7
20260509180505 28 256 8.0 17.7 0.00 0.00 0.00 75 1011.8
20260509180005 28 255 8.0 17.7 0.00 0.00 0.00 74 1011.9
20260509175505 28 253 8.0 19.3 0.00 0.00 0.00 74 1011.8
20260509175005 28 254 8.0 19.3 0.00 0.00 0.00 73 1011.9
20260509174505 28 258 8.0 19.3 0.00 0.00 0.00 73 1012.1
20260509174004 28 260 8.0 19.3 0.00 0.00 0.00 72 1012.1
20260509173505 28 261 9.7 19.3 0.00 0.00 0.00 71 1012.1
20260509173026 28 253 8.0 19.3 0.00 0.00 0.00 71 1012.1
20260509172526 28 255 8.0 17.7 0.00 0.00 0.00 72 1012.2
20260509172004 28 262 8.0 17.7 0.00 0.00 0.00 72 1012.1
20260509171507 28 267 8.0 19.3 0.00 0.00 0.00 72 1012.2
20260509171005 28 271 8.0 19.3 0.00 0.00 0.00 71 1012.2
20260509170505 29 265 6.4 16.1 0.00 0.00 0.00 71 1012.1
20260509170026 29 262 6.4 14.5 0.00 0.00 0.00 73 1012.1
20260509165526 28 260 6.4 12.9 0.00 0.00 0.00 73 1012.2
20260509165005 29 246 3.2 12.9 0.00 0.00 0.00 73 1012.2
20260509164505 28 261 4.8 16.1 0.00 0.00 0.00 76 1012.1
20260509164005 28 263 6.4 16.1 0.00 0.00 0.00 76 1012.2
20260509163505 28 252 3.2 11.3 0.00 0.00 0.00 75 1012.1
20260509163026 28 248 3.2 11.3 0.00 0.00 0.00 76 1012.1
20260509162526 28 254 4.8 12.9 0.00 0.00 0.00 76 1012.3
20260509162005 28 274 8.0 17.7 0.00 0.00 0.00 76 1012.4
20260509161504 28 278 6.4 17.7 0.00 0.00 0.00 76 1012.3
20260509161004 28 258 3.2 11.3 0.00 0.00 0.00 75 1012.4
20260509160505 28 249 4.8 11.3 0.00 0.00 0.00 76 1012.3
20260509160005 28 247 4.8 14.5 0.00 0.00 0.00 77 1012.2
20260509155526 28 241 4.8 14.5 0.00 0.00 0.00 76 1012.0
20260509155005 28 224 3.2 11.3 0.00 0.00 0.00 78 1011.9
20260509154526 28 227 3.2 11.3 0.00 0.00 0.00 78 1011.9
20260509154026 28 243 3.2 11.3 0.00 0.00 0.00 80 1012.0
20260509153504 27 234 3.2 11.3 0.00 0.00 0.00 80 1011.9
20260509153005 27 228 3.2 12.9 0.00 0.00 0.00 81 1011.7
20260509152505 27 236 3.2 12.9 0.00 0.00 0.00 82 1011.8
20260509152005 27 237 3.2 9.7 0.00 0.00 0.00 84 1011.7
20260509151504 27 220 3.2 12.9 0.00 0.00 0.00 83 1011.8
20260509151005 27 175 1.6 12.9 0.00 0.00 0.00 84 1011.6
20260509150504 26 173 1.6 6.4 0.00 0.00 0.00 85 1011.5